Weather in Rostovskoye

Russia / Arkhangel'skaya Oblast'     62°46′42″N   43°09′16″E
В апреле 2022 года жителям России запретили посещать сайт meteo.paraplan.net по решению Генеральной прокуратуры. Аудитория сайта уменьшилась в 10 раз. Владельцы сайта не видят смысла в поддержке погодного сервера в таких условиях. Сайт будет закрыт в октябре.
temp.,
°C
wind,
m/s
gust,
m/s
humid.,
%
clouds,
%
prec.,
mm/h
press.,
hPa
HPBL,
m
3 october, mon
mon300:00+6nnw2693100 0.0 1008244
03:00+4nnw279728 0.0 1010184
06:00+3n279822 0.0 1012178
09:00+6ne25895 0.0 1013267
12:00+9ene2476100 0.0 1014750
15:00+9ene2577100 0.0 1015621
18:00+6ene3987100 0.0 1015309
21:00+7e41192100 0.9 1014540
4 october, tue
tue400:00+7e41293100 0.9 1013504
03:00+8ese41195100 0.9 1012473
06:00+9se31098100 0.2 1013431
09:00+11s389177 0.3 1014667
12:00+13s37791 0.0 1015864
15:00+13sse377712 0.0 1016956
18:00+10se31193100 0.0 1017281
21:00+10se31192100 0.0 1017390
5 october, wed
wed500:00+8se39965 0.0 1017259
03:00+7ese389769 0.0 1016192
06:00+7ese3109771 0.0 1016286
09:00+9se4109175 0.0 1015470
12:00+9se389198 0.0 1015554
15:00+11ese3883100 0.0 1014695
18:00+10se3889100 0.0 1014405
21:00+9ese3796100 0.7 1013335
6 october, thu
thu600:00+8ese2697100 0.1 1012294
03:00+8ese2598100 0.3 1011235
06:00+8ese259897 0.1 1011242
09:00+8se2497100 0.1 1010292
12:00+10sse248681 0.1 1009584
15:00+11s3684100 0.4 1008432
18:00+8sse389413 0.3 1006260
21:00+7s41294100 0.3 1004588
7 october, fri
fri700:00+7s51289100 0.4 1000772
03:00+7ssw41195100 5.5 999745
06:00+8sw3109397 0.2 998492
09:00+8wsw3993100 1.1 998581
12:00+8wsw4990100 0.8 9981059
15:00+9w4983100 1.3 999955
18:00+8w31193100 0.4 1001647
21:00+7w41289100 0.8 1003548